Wetterdaten: Samstag, 14.02.2015
Datum Zeit Auen-Temp. Temp. -10 cm Luftfeuchte Luftfeuchte Luftdruck Regen Wind Richtung Richtung Taupunkt Windchill Windben
14.02.2015 00:00 -5,5 C 1,1 C 78 % 78 % 1017,5 hPa 0,0 l/m 0,3 km/h (0 Bft) O-SO 112 -8,7 C -6,3 C 0,0 km/h (0 Bft)
14.02.2015 00:05 -5,5 C 1,1 C 78 % 78 % 1017,5 hPa 0,0 l/m 0,2 km/h (0 Bft) S 180 -8,7 C -6,3 C 1,9 km/h (1 Bft)
14.02.2015 00:10 -5,7 C 1,1 C 78 % 78 % 1017,5 hPa 0,0 l/m 0,0 km/h (0 Bft) N-NW 337 -8,9 C -6,3 C 0,0 km/h (0 Bft)
14.02.2015 00:15 -5,7 C 1,1 C 78 % 78 % 1017,5 hPa 0,0 l/m 0,0 km/h (0 Bft) O-SO 112 -8,9 C -6,5 C 0,0 km/h (0 Bft)
14.02.2015 00:20 -5,7 C 1,1 C 78 % 78 % 1017,5 hPa 0,0 l/m 0,0 km/h (0 Bft) O 90 -8,9 C -6,5 C 0,0 km/h (0 Bft)
14.02.2015 00:25 -5,7 C 1,1 C 78 % 78 % 1017,5 hPa 0,0 l/m 0,0 km/h (0 Bft) W 270 -8,9 C -6,6 C 0,0 km/h (0 Bft)
14.02.2015 00:30 -6,0 C 1,1 C 78 % 78 % 1017,5 hPa 0,0 l/m 0,0 km/h (0 Bft) S-SO 157 -9,2 C -6,8 C 0,0 km/h (0 Bft)
14.02.2015 00:35 -5,5 C 1,1 C 78 % 78 % 1017,6 hPa 0,0 l/m 0,2 km/h (0 Bft) W-SW 247 -8,7 C -6,7 C 1,9 km/h (1 Bft)
14.02.2015 00:40 -5,7 C 1,1 C 78 % 78 % 1017,6 hPa 0,0 l/m 0,2 km/h (0 Bft) SO 135 -8,9 C -6,3 C 2,7 km/h (1 Bft)
14.02.2015 00:45 -5,7 C 1,1 C 78 % 78 % 1017,6 hPa 0,0 l/m 0,2 km/h (0 Bft) SO 135 -8,9 C -6,5 C 0,0 km/h (0 Bft)
14.02.2015 00:50 -5,7 C 1,1 C 78 % 78 % 1017,6 hPa 0,0 l/m 0,0 km/h (0 Bft) NO 45 -8,9 C -6,5 C 0,0 km/h (0 Bft)
14.02.2015 00:55 -5,9 C 1,1 C 78 % 78 % 1016,9 hPa 0,0 l/m 0,0 km/h (0 Bft) N-NW 337 -9,1 C -6,6 C 0,0 km/h (0 Bft)
14.02.2015 01:00 -6,0 C 1,1 C 78 % 78 % 1016,9 hPa 0,0 l/m 0,0 km/h (0 Bft) O 90 -9,2 C -6,6 C 0,0 km/h (0 Bft)
14.02.2015 01:05 -6,0 C 1,1 C 78 % 78 % 1016,9 hPa 0,0 l/m 0,5 km/h (0 Bft) SO 135 -9,2 C -6,6 C 2,7 km/h (1 Bft)
14.02.2015 01:10 -6,0 C 1,1 C 79 % 79 % 1016,9 hPa 0,0 l/m 0,6 km/h (0 Bft) O-NO 67 -9,0 C -6,0 C 0,0 km/h (0 Bft)
14.02.2015 01:15 -4,7 C 1,1 C 79 % 79 % 1017,2 hPa 0,0 l/m 0,5 km/h (0 Bft) S 180 -7,8 C -5,8 C 0,0 km/h (0 Bft)
14.02.2015 01:20 -5,1 C 1,1 C 79 % 79 % 1017,2 hPa 0,0 l/m 0,5 km/h (0 Bft) SO 135 -8,2 C -5,7 C 2,9 km/h (1 Bft)
14.02.2015 01:25 -4,8 C 1,0 C 79 % 79 % 1017,2 hPa 0,0 l/m 0,6 km/h (0 Bft) S 180 -7,9 C -5,6 C 0,0 km/h (0 Bft)
14.02.2015 01:30 -4,5 C 1,1 C 79 % 79 % 1017,2 hPa 0,0 l/m 0,8 km/h (0 Bft) SO 135 -7,6 C -5,4 C 3,1 km/h (1 Bft)
14.02.2015 01:35 -4,8 C 1,0 C 78 % 78 % 1017,2 hPa 0,0 l/m 0,6 km/h (0 Bft) O-NO 67 -8,0 C -5,3 C 0,0 km/h (0 Bft)
14.02.2015 01:40 -5,5 C 1,1 C 78 % 78 % 1017,2 hPa 0,0 l/m 0,2 km/h (0 Bft) SO 135 -8,7 C -5,9 C 0,0 km/h (0 Bft)
14.02.2015 01:45 -5,3 C 1,1 C 78 % 78 % 1017,2 hPa 0,0 l/m 0,0 km/h (0 Bft) N-NO 22 -8,5 C -6,1 C 0,0 km/h (0 Bft)
14.02.2015 01:50 -5,5 C 1,1 C 78 % 78 % 1017,2 hPa 0,0 l/m 0,0 km/h (0 Bft) S-SO 157 -8,7 C -6,3 C 2,9 km/h (1 Bft)
14.02.2015 01:55 -5,3 C 1,1 C 78 % 78 % 1017,1 hPa 0,0 l/m 0,2 km/h (0 Bft) N-NO 22 -8,5 C -6,0 C 0,0 km/h (0 Bft)
14.02.2015 02:00 -5,7 C 1,1 C 78 % 78 % 1017,1 hPa 0,0 l/m 0,5 km/h (0 Bft) W-SW 247 -8,9 C -6,3 C 1,8 km/h (1 Bft)
14.02.2015 02:05 -5,5 C 1,1 C 78 % 78 % 1017,1 hPa 0,0 l/m 0,5 km/h (0 Bft) N-NO 22 -8,7 C -6,0 C 0,0 km/h (0 Bft)
14.02.2015 02:10 -5,6 C 1,1 C 78 % 78 % 1017,1 hPa 0,0 l/m 0,2 km/h (0 Bft) N-NO 22 -8,8 C -6,1 C 0,0 km/h (0 Bft)
14.02.2015 02:15 -5,9 C 1,1 C 78 % 78 % 1016,5 hPa 0,0 l/m 0,0 km/h (0 Bft) N-NO 22 -9,1 C -6,3 C 0,0 km/h (0 Bft)
14.02.2015 02:20 -6,1 C 1,1 C 78 % 78 % 1016,5 hPa 0,0 l/m 0,0 km/h (0 Bft) O-NO 67 -9,3 C -6,9 C 0,0 km/h (0 Bft)
14.02.2015 02:25 -6,4 C 1,1 C 78 % 78 % 1016,5 hPa 0,0 l/m 0,0 km/h (0 Bft) NO 45 -9,6 C -7,1 C 0,0 km/h (0 Bft)
14.02.2015 02:30 -6,2 C 1,1 C 78 % 78 % 1016,5 hPa 0,0 l/m 0,0 km/h (0 Bft) SW 225 -9,4 C -7,3 C 0,0 km/h (0 Bft)
14.02.2015 02:35 -6,3 C 1,1 C 78 % 78 % 1016,9 hPa 0,0 l/m 0,0 km/h (0 Bft) W 270 -9,5 C -7,3 C 0,0 km/h (0 Bft)
14.02.2015 02:40 -6,7 C 1,1 C 78 % 78 % 1016,9 hPa 0,0 l/m 0,0 km/h (0 Bft) NO 45 -9,9 C -7,4 C 0,0 km/h (0 Bft)
14.02.2015 02:45 -7,0 C 1,1 C 78 % 78 % 1016,9 hPa 0,0 l/m 0,0 km/h (0 Bft) N-NO 22 -10,2 C -7,6 C 0,0 km/h (0 Bft)
14.02.2015 02:50 -7,1 C 1,1 C 78 % 78 % 1016,9 hPa 0,0 l/m 0,0 km/h (0 Bft) O 90 -10,3 C -7,9 C 0,0 km/h (0 Bft)
14.02.2015 02:55 -7,1 C 1,1 C 78 % 78 % 1016,5 hPa 0,0 l/m 0,0 km/h (0 Bft) NW 315 -10,3 C -7,9 C 0,0 km/h (0 Bft)
14.02.2015 03:00 -6,7 C 1,1 C 78 % 78 % 1016,5 hPa 0,0 l/m 0,0 km/h (0 Bft) W-SW 247 -9,9 C -7,9 C 0,0 km/h (0 Bft)
14.02.2015 03:05 -6,8 C 1,1 C 78 % 78 % 1016,5 hPa 0,0 l/m 0,0 km/h (0 Bft) W-SW 247 -10,0 C -7,9 C 0,0 km/h (0 Bft)
14.02.2015 03:10 -7,1 C 1,1 C 78 % 78 % 1016,5 hPa 0,0 l/m 0,0 km/h (0 Bft) W-SW 247 -10,3 C -8,1 C 0,0 km/h (0 Bft)
14.02.2015 03:15 -7,4 C 1,1 C 78 % 78 % 1016,3 hPa 0,0 l/m 0,0 km/h (0 Bft) S 180 -10,6 C -8,2 C 0,0 km/h (0 Bft)
14.02.2015 03:20 -7,3 C 1,1 C 78 % 78 % 1016,3 hPa 0,0 l/m 0,0 km/h (0 Bft) W-NW 292 -10,5 C -8,3 C 0,0 km/h (0 Bft)
14.02.2015 03:25 -7,4 C 1,1 C 78 % 78 % 1016,3 hPa 0,0 l/m 0,0 km/h (0 Bft) W-NW 292 -10,6 C -8,2 C 0,0 km/h (0 Bft)
14.02.2015 03:30 -7,6 C 1,1 C 78 % 78 % 1016,3 hPa 0,0 l/m 0,0 km/h (0 Bft) N-NW 337 -10,8 C -8,3 C 0,0 km/h (0 Bft)
14.02.2015 03:35 -7,4 C 1,1 C 78 % 78 % 1016,2 hPa 0,0 l/m 0,0 km/h (0 Bft) S-SO 157 -10,6 C -8,4 C 0,0 km/h (0 Bft)
14.02.2015 03:40 -7,5 C 1,1 C 79 % 79 % 1016,2 hPa 0,0 l/m 0,0 km/h (0 Bft) S 180 -10,5 C -8,4 C 0,0 km/h (0 Bft)
14.02.2015 03:45 -7,5 C 1,1 C 79 % 79 % 1016,2 hPa 0,0 l/m 0,0 km/h (0 Bft) W 270 -10,5 C -8,4 C 0,0 km/h (0 Bft)
14.02.2015 03:50 -7,6 C 1,1 C 79 % 79 % 1016,2 hPa 0,0 l/m 0,0 km/h (0 Bft) O-SO 112 -10,6 C -8,3 C 0,0 km/h (0 Bft)
14.02.2015 03:55 -7,6 C 1,1 C 79 % 79 % 1016,0 hPa 0,0 l/m 0,0 km/h (0 Bft) S 180 -10,6 C -8,2 C 0,0 km/h (0 Bft)
14.02.2015 04:00 -7,7 C 1,1 C 79 % 79 % 1016,0 hPa 0,0 l/m 0,0 km/h (0 Bft) S 180 -10,7 C -8,3 C 0,0 km/h (0 Bft)
14.02.2015 04:05 -7,5 C 1,1 C 79 % 79 % 1016,0 hPa 0,0 l/m 0,0 km/h (0 Bft) W 270 -10,5 C -8,3 C 0,0 km/h (0 Bft)
14.02.2015 04:10 -7,7 C 1,1 C 79 % 79 % 1016,0 hPa 0,0 l/m 0,0 km/h (0 Bft) S 180 -10,7 C -8,3 C 0,0 km/h (0 Bft)
14.02.2015 04:15 -7,8 C 1,1 C 79 % 79 % 1015,8 hPa 0,0 l/m 0,0 km/h (0 Bft) W-SW 247 -10,8 C -8,3 C 0,0 km/h (0 Bft)
14.02.2015 04:20 -7,8 C 1,1 C 79 % 79 % 1015,8 hPa 0,0 l/m 0,0 km/h (0 Bft) N-NW 337 -10,8 C -8,4 C 0,0 km/h (0 Bft)
14.02.2015 04:25 -7,7 C 1,1 C 79 % 79 % 1015,8 hPa 0,0 l/m 0,0 km/h (0 Bft) O-SO 112 -10,7 C -8,4 C 0,0 km/h (0 Bft)
14.02.2015 04:30 -7,5 C 1,1 C 79 % 79 % 1015,8 hPa 0,0 l/m 0,0 km/h (0 Bft) S-SO 157 -10,5 C -8,2 C 0,0 km/h (0 Bft)
14.02.2015 04:35 -7,3 C 1,1 C 79 % 79 % 1015,8 hPa 0,0 l/m 0,0 km/h (0 Bft) W-NW 292 -10,3 C -8,2 C 0,0 km/h (0 Bft)
14.02.2015 04:40 -7,0 C 1,1 C 79 % 79 % 1015,8 hPa 0,0 l/m 0,0 km/h (0 Bft) S-SW 202 -10,0 C -8,1 C 0,0 km/h (0 Bft)
14.02.2015 04:45 -7,2 C 1,1 C 79 % 79 % 1015,8 hPa 0,0 l/m 0,0 km/h (0 Bft) W 270 -10,2 C -7,9 C 0,0 km/h (0 Bft)
14.02.2015 04:50 -7,0 C 1,1 C 80 % 80 % 1015,8 hPa 0,0 l/m 0,0 km/h (0 Bft) SW 225 -9,9 C -7,8 C 0,0 km/h (0 Bft)
14.02.2015 04:55 -7,1 C 1,1 C 80 % 80 % 1015,5 hPa 0,0 l/m 0,0 km/h (0 Bft) O-SO 112 -9,9 C -7,6 C 0,0 km/h (0 Bft)
14.02.2015 05:00 -6,7 C 1,1 C 80 % 80 % 1015,5 hPa 0,0 l/m 0,0 km/h (0 Bft) W 270 -9,6 C -7,5 C 0,0 km/h (0 Bft)
14.02.2015 05:05 -6,9 C 1,1 C 80 % 80 % 1015,5 hPa 0,0 l/m 0,0 km/h (0 Bft) W-NW 292 -9,8 C -7,5 C 0,0 km/h (0 Bft)
14.02.2015 05:10 -7,1 C 1,1 C 80 % 80 % 1015,5 hPa 0,0 l/m 0,0 km/h (0 Bft) N-NO 22 -9,9 C -7,5 C 0,0 km/h (0 Bft)
14.02.2015 05:15 -7,0 C 1,1 C 80 % 80 % 1015,3 hPa 0,0 l/m 0,0 km/h (0 Bft) N-NO 22 -9,9 C -7,5 C 0,0 km/h (0 Bft)
14.02.2015 05:20 -6,6 C 1,1 C 80 % 80 % 1015,3 hPa 0,0 l/m 0,0 km/h (0 Bft) SO 135 -9,5 C -7,4 C 0,0 km/h (0 Bft)
14.02.2015 05:25 -6,5 C 1,1 C 80 % 80 % 1015,3 hPa 0,0 l/m 0,0 km/h (0 Bft) N-NW 337 -9,4 C -7,2 C 0,0 km/h (0 Bft)
14.02.2015 05:30 -6,7 C 1,1 C 80 % 80 % 1015,3 hPa 0,0 l/m 0,0 km/h (0 Bft) W 270 -9,6 C -7,2 C 0,0 km/h (0 Bft)
14.02.2015 05:35 -6,9 C 1,1 C 80 % 80 % 1015,4 hPa 0,0 l/m 0,0 km/h (0 Bft) NO 45 -9,8 C -7,4 C 0,0 km/h (0 Bft)
14.02.2015 05:40 -6,8 C 1,1 C 80 % 80 % 1015,4 hPa 0,0 l/m 0,0 km/h (0 Bft) O-SO 112 -9,7 C -7,3 C 0,0 km/h (0 Bft)
14.02.2015 05:45 -6,4 C 1,1 C 81 % 81 % 1015,4 hPa 0,0 l/m 0,0 km/h (0 Bft) O-NO 67 -9,1 C -7,2 C 0,0 km/h (0 Bft)
14.02.2015 05:50 -6,5 C 1,1 C 80 % 80 % 1015,4 hPa 0,0 l/m 0,0 km/h (0 Bft) W-SW 247 -9,4 C -7,1 C 0,0 km/h (0 Bft)
14.02.2015 05:55 -6,7 C 1,1 C 80 % 80 % 1015,2 hPa 0,0 l/m 0,0 km/h (0 Bft) SO 135 -9,6 C -7,2 C 0,0 km/h (0 Bft)
14.02.2015 06:00 -6,8 C 1,1 C 80 % 80 % 1015,2 hPa 0,0 l/m 0,0 km/h (0 Bft) S-SO 157 -9,7 C -7,3 C 0,0 km/h (0 Bft)
14.02.2015 06:05 -6,6 C 1,1 C 80 % 80 % 1015,2 hPa 0,0 l/m 0,0 km/h (0 Bft) NW 315 -9,5 C -7,3 C 0,0 km/h (0 Bft)
14.02.2015 06:10 -6,5 C 1,1 C 81 % 81 % 1015,2 hPa 0,0 l/m 0,0 km/h (0 Bft) N-NO 22 -9,2 C -7,1 C 0,0 km/h (0 Bft)
14.02.2015 06:15 -6,4 C 1,1 C 81 % 81 % 1015,2 hPa 0,0 l/m 0,0 km/h (0 Bft) S 180 -9,1 C -7,0 C 0,0 km/h (0 Bft)
14.02.2015 06:20 -6,4 C 1,1 C 81 % 81 % 1015,2 hPa 0,0 l/m 0,0 km/h (0 Bft) S-SO 157 -9,1 C -6,9 C 0,0 km/h (0 Bft)
14.02.2015 06:25 -6,1 C 1,1 C 81 % 81 % 1015,2 hPa 0,0 l/m 0,0 km/h (0 Bft) SO 135 -8,8 C -6,8 C 0,0 km/h (0 Bft)
14.02.2015 06:30 -6,0 C 1,1 C 81 % 81 % 1015,2 hPa 0,0 l/m 0,0 km/h (0 Bft) O-NO 67 -8,7 C -6,7 C 0,0 km/h (0 Bft)
14.02.2015 06:35 -6,0 C 1,1 C 81 % 81 % 1015,0 hPa 0,0 l/m 0,0 km/h (0 Bft) S 180 -8,7 C -6,7 C 0,0 km/h (0 Bft)
14.02.2015 06:40 -6,0 C 1,1 C 81 % 81 % 1015,0 hPa 0,0 l/m 0,0 km/h (0 Bft) O 90 -8,7 C -6,5 C 0,0 km/h (0 Bft)
14.02.2015 06:45 -6,0 C 1,1 C 81 % 81 % 1015,0 hPa 0,0 l/m 0,0 km/h (0 Bft) N-NO 22 -8,7 C -6,3 C 0,0 km/h (0 Bft)
14.02.2015 06:50 -6,0 C 1,1 C 81 % 81 % 1015,0 hPa 0,0 l/m 0,0 km/h (0 Bft) O 90 -8,7 C -6,5 C 0,0 km/h (0 Bft)
14.02.2015 06:55 -6,0 C 1,1 C 81 % 81 % 1014,9 hPa 0,0 l/m 0,0 km/h (0 Bft) O-NO 67 -8,7 C -6,5 C 0,0 km/h (0 Bft)
14.02.2015 07:00 -6,0 C 1,1 C 81 % 81 % 1014,9 hPa 0,0 l/m 0,0 km/h (0 Bft) W-NW 292 -8,7 C -6,5 C 0,0 km/h (0 Bft)
14.02.2015 07:05 -6,0 C 1,1 C 81 % 81 % 1014,9 hPa 0,0 l/m 0,0 km/h (0 Bft) O-NO 67 -8,7 C -6,5 C 0,0 km/h (0 Bft)
14.02.2015 07:10 -6,0 C 1,1 C 81 % 81 % 1014,9 hPa 0,0 l/m 0,0 km/h (0 Bft) N-NO 22 -8,7 C -6,6 C 0,0 km/h (0 Bft)
14.02.2015 07:15 -6,2 C 1,1 C 81 % 81 % 1014,9 hPa 0,0 l/m 0,0 km/h (0 Bft) W-SW 247 -8,9 C -6,7 C 0,0 km/h (0 Bft)
14.02.2015 07:20 -6,0 C 1,1 C 81 % 81 % 1014,9 hPa 0,0 l/m 0,0 km/h (0 Bft) W-SW 247 -8,7 C -6,9 C 0,0 km/h (0 Bft)
14.02.2015 07:25 -6,0 C 1,1 C 81 % 81 % 1014,9 hPa 0,0 l/m 0,0 km/h (0 Bft) W 270 -8,7 C -6,9 C 0,0 km/h (0 Bft)
14.02.2015 07:30 -6,1 C 1,1 C 81 % 81 % 1014,9 hPa 0,0 l/m 0,0 km/h (0 Bft) S 180 -8,8 C -6,9 C 0,0 km/h (0 Bft)
14.02.2015 07:35 -6,0 C 1,1 C 81 % 81 % 1014,9 hPa 0,0 l/m 0,0 km/h (0 Bft) W 270 -8,7 C -6,9 C 0,0 km/h (0 Bft)
14.02.2015 07:40 -6,1 C 1,1 C 80 % 80 % 1014,9 hPa 0,0 l/m 0,0 km/h (0 Bft) W-SW 247 -9,0 C -6,9 C 0,0 km/h (0 Bft)
14.02.2015 07:45 -6,0 C 1,1 C 81 % 81 % 1014,9 hPa 0,0 l/m 0,0 km/h (0 Bft) W-NW 292 -8,7 C -6,8 C 0,0 km/h (0 Bft)
14.02.2015 07:50 -6,0 C 1,1 C 81 % 81 % 1014,9 hPa 0,0 l/m 0,0 km/h (0 Bft) W 270 -8,7 C -6,7 C 0,0 km/h (0 Bft)
14.02.2015 07:55 -6,0 C 1,1 C 80 % 80 % 1014,8 hPa 0,0 l/m 0,0 km/h (0 Bft) N 360 -8,9 C -6,5 C 0,0 km/h (0 Bft)
14.02.2015 08:00 -6,0 C 1,1 C 80 % 80 % 1014,8 hPa 0,0 l/m 0,0 km/h (0 Bft) O-NO 67 -8,9 C -6,5 C 0,0 km/h (0 Bft)
14.02.2015 08:05 -6,0 C 1,1 C 80 % 80 % 1014,8 hPa 0,0 l/m 0,0 km/h (0 Bft) O-NO 67 -8,9 C -6,5 C 0,0 km/h (0 Bft)
14.02.2015 08:10 -6,0 C 1,1 C 81 % 81 % 1014,8 hPa 0,0 l/m 0,0 km/h (0 Bft) SO 135 -8,7 C -6,3 C 0,0 km/h (0 Bft)
14.02.2015 08:15 -6,0 C 1,1 C 81 % 81 % 1014,8 hPa 0,0 l/m 0,0 km/h (0 Bft) W 270 -8,7 C -6,0 C 0,0 km/h (0 Bft)
14.02.2015 08:20 -6,0 C 1,0 C 81 % 81 % 1014,8 hPa 0,0 l/m 0,0 km/h (0 Bft) S 180 -8,7 C -5,7 C 0,0 km/h (0 Bft)
14.02.2015 08:25 -6,0 C 1,0 C 80 % 80 % 1014,8 hPa 0,0 l/m 0,0 km/h (0 Bft) NW 315 -8,9 C -5,6 C 0,0 km/h (0 Bft)
14.02.2015 08:30 -6,0 C 1,0 C 81 % 81 % 1014,8 hPa 0,0 l/m 0,0 km/h (0 Bft) O-NO 67 -8,7 C -5,2 C 0,0 km/h (0 Bft)
14.02.2015 08:35 -6,0 C 1,0 C 81 % 81 % 1014,4 hPa 0,0 l/m 0,0 km/h (0 Bft) S 180 -8,7 C -4,9 C 0,0 km/h (0 Bft)
14.02.2015 08:40 -6,0 C 1,1 C 81 % 81 % 1014,4 hPa 0,0 l/m 0,5 km/h (0 Bft) W 270 -8,7 C -4,6 C 2,1 km/h (1 Bft)
14.02.2015 08:45 -6,0 C 1,1 C 80 % 80 % 1014,4 hPa 0,0 l/m 0,6 km/h (0 Bft) W-SW 247 -8,9 C -4,4 C 0,0 km/h (0 Bft)
14.02.2015 08:50 -6,0 C 1,1 C 80 % 80 % 1014,4 hPa 0,0 l/m 0,3 km/h (0 Bft) W 270 -8,9 C -3,9 C 0,0 km/h (0 Bft)
14.02.2015 08:55 -6,0 C 1,1 C 80 % 80 % 1014,4 hPa 0,0 l/m 0,0 km/h (0 Bft) SO 135 -8,9 C -3,8 C 0,0 km/h (0 Bft)
14.02.2015 09:00 -6,0 C 1,1 C 80 % 80 % 1014,4 hPa 0,0 l/m 0,0 km/h (0 Bft) SO 135 -8,9 C -3,1 C 0,0 km/h (0 Bft)
14.02.2015 09:05 -6,0 C 1,1 C 80 % 80 % 1014,4 hPa 0,0 l/m 0,0 km/h (0 Bft) O-NO 67 -8,9 C -2,7 C 0,0 km/h (0 Bft)
14.02.2015 09:10 -6,0 C 1,1 C 80 % 80 % 1014,4 hPa 0,0 l/m 0,0 km/h (0 Bft) O-NO 67 -8,9 C -2,0 C 0,0 km/h (0 Bft)
14.02.2015 09:15 -6,0 C 1,1 C 80 % 80 % 1014,1 hPa 0,0 l/m 0,0 km/h (0 Bft) NW 315 -8,9 C -1,5 C 0,0 km/h (0 Bft)
14.02.2015 09:20 -0,3 C 1,1 C 79 % 79 % 1014,1 hPa 0,0 l/m 0,0 km/h (0 Bft) O-NO 67 -3,5 C -0,5 C 0,0 km/h (0 Bft)
14.02.2015 09:25 -0,1 C 1,1 C 79 % 79 % 1014,1 hPa 0,0 l/m 0,0 km/h (0 Bft) O-NO 67 -3,3 C 0,0 C 0,0 km/h (0 Bft)
14.02.2015 09:30 0,4 C 1,1 C 78 % 78 % 1014,1 hPa 0,0 l/m 0,0 km/h (0 Bft) S-SO 157 -3,0 C 0,4 C 0,0 km/h (0 Bft)
14.02.2015 09:35 0,6 C 1,0 C 77 % 77 % 1014,1 hPa 0,0 l/m 0,0 km/h (0 Bft) S 180 -3,0 C 0,8 C 0,0 km/h (0 Bft)
14.02.2015 09:40 0,4 C 1,0 C 76 % 76 % 1014,1 hPa 0,0 l/m 0,0 km/h (0 Bft) NW 315 -3,3 C 1,1 C 0,0 km/h (0 Bft)
14.02.2015 09:45 0,2 C 1,0 C 75 % 75 % 1014,1 hPa 0,0 l/m 0,0 km/h (0 Bft) S-SO 157 -3,7 C 1,2 C 0,0 km/h (0 Bft)
14.02.2015 09:50 0,2 C 1,0 C 75 % 75 % 1014,1 hPa 0,0 l/m 0,0 km/h (0 Bft) SO 135 -3,7 C 1,1 C 0,0 km/h (0 Bft)
14.02.2015 09:55 0,4 C 1,0 C 75 % 75 % 1014,0 hPa 0,0 l/m 0,0 km/h (0 Bft) O-NO 67 -3,5 C 1,1 C 0,0 km/h (0 Bft)
14.02.2015 10:00 0,2 C 1,0 C 75 % 75 % 1014,0 hPa 0,0 l/m 0,0 km/h (0 Bft) W 270 -3,7 C 1,1 C 0,0 km/h (0 Bft)
14.02.2015 10:05 0,3 C 1,0 C 74 % 74 % 1014,0 hPa 0,0 l/m 0,0 km/h (0 Bft) O-SO 112 -3,8 C 1,1 C 0,0 km/h (0 Bft)
14.02.2015 10:10 0,4 C 1,0 C 74 % 74 % 1014,0 hPa 0,0 l/m 0,0 km/h (0 Bft) SO 135 -3,7 C 1,0 C 0,0 km/h (0 Bft)
14.02.2015 10:15 0,8 C 1,0 C 74 % 74 % 1013,9 hPa 0,0 l/m 0,2 km/h (0 Bft) NO 45 -3,3 C 1,1 C 0,0 km/h (0 Bft)
14.02.2015 10:20 0,7 C 1,0 C 73 % 73 % 1013,9 hPa 0,0 l/m 0,2 km/h (0 Bft) SW 225 -3,6 C 1,4 C 0,0 km/h (0 Bft)
14.02.2015 10:25 1,1 C 1,0 C 73 % 73 % 1013,9 hPa 0,0 l/m 0,0 km/h (0 Bft) W-NW 292 -3,2 C 1,6 C 0,0 km/h (0 Bft)
14.02.2015 10:30 1,3 C 1,1 C 72 % 72 % 1013,9 hPa 0,0 l/m 0,0 km/h (0 Bft) NW 315 -3,2 C 2,1 C 0,0 km/h (0 Bft)
14.02.2015 10:35 1,5 C 1,1 C 72 % 72 % 1013,6 hPa 0,0 l/m 0,0 km/h (0 Bft) NW 315 -3,0 C 2,4 C 0,0 km/h (0 Bft)
14.02.2015 10:40 2,1 C 1,1 C 72 % 72 % 1013,6 hPa 0,0 l/m 0,0 km/h (0 Bft) W-SW 247 -2,4 C 3,2 C 0,0 km/h (0 Bft)
14.02.2015 10:45 2,4 C 1,1 C 71 % 71 % 1013,6 hPa 0,0 l/m 0,0 km/h (0 Bft) W-NW 292 -2,3 C 3,7 C 0,0 km/h (0 Bft)
14.02.2015 10:50 3,0 C 1,1 C 70 % 70 % 1013,6 hPa 0,0 l/m 0,0 km/h (0 Bft) S-SW 202 -1,9 C 4,2 C 0,0 km/h (0 Bft)
14.02.2015 10:55 3,5 C 1,1 C 69 % 69 % 1013,9 hPa 0,0 l/m 0,0 km/h (0 Bft) S-SW 202 -1,6 C 4,8 C 0,0 km/h (0 Bft)
14.02.2015 11:00 4,1 C 1,1 C 69 % 69 % 1013,9 hPa 0,0 l/m 0,0 km/h (0 Bft) S-SW 202 -1,1 C 5,8 C 0,0 km/h (0 Bft)
14.02.2015 11:05 4,4 C 1,1 C 69 % 69 % 1013,9 hPa 0,0 l/m 0,0 km/h (0 Bft) W-SW 247 -0,8 C 6,4 C 0,0 km/h (0 Bft)
14.02.2015 11:10 4,4 C 1,1 C 67 % 67 % 1013,9 hPa 0,0 l/m 0,0 km/h (0 Bft) SW 225 -1,2 C 6,6 C 0,0 km/h (0 Bft)
14.02.2015 11:15 4,8 C 1,1 C 67 % 67 % 1014,1 hPa 0,0 l/m 0,0 km/h (0 Bft) SW 225 -0,8 C 6,7 C 0,0 km/h (0 Bft)
14.02.2015 11:20 5,1 C 1,1 C 66 % 66 % 1014,1 hPa 0,0 l/m 0,0 km/h (0 Bft) S 180 -0,7 C 7,1 C 0,0 km/h (0 Bft)
14.02.2015 11:25 5,4 C 1,1 C 66 % 66 % 1014,1 hPa 0,0 l/m 0,0 km/h (0 Bft) NW 315 -0,4 C 7,3 C 0,0 km/h (0 Bft)
14.02.2015 11:30 5,3 C 1,0 C 64 % 64 % 1014,1 hPa 0,0 l/m 0,3 km/h (0 Bft) SW 225 -0,9 C 8,0 C 0,0 km/h (0 Bft)
14.02.2015 11:35 5,3 C 1,0 C 63 % 63 % 1014,1 hPa 0,0 l/m 0,3 km/h (0 Bft) SW 225 -1,2 C 8,4 C 0,0 km/h (0 Bft)
14.02.2015 11:40 5,9 C 1,1 C 63 % 63 % 1014,1 hPa 0,0 l/m 0,2 km/h (0 Bft) O-SO 112 -0,6 C 8,9 C 0,0 km/h (0 Bft)
14.02.2015 11:45 5,9 C 1,1 C 62 % 62 % 1014,1 hPa 0,0 l/m 0,2 km/h (0 Bft) O 90 -0,8 C 8,9 C 0,0 km/h (0 Bft)
14.02.2015 11:50 6,2 C 1,1 C 62 % 62 % 1014,1 hPa 0,0 l/m 0,2 km/h (0 Bft) N-NW 337 -0,5 C 8,6 C 0,0 km/h (0 Bft)
14.02.2015 11:55 6,6 C 1,1 C 61 % 61 % 1013,9 hPa 0,0 l/m 0,2 km/h (0 Bft) W-SW 247 -0,4 C 8,8 C 0,0 km/h (0 Bft)
14.02.2015 12:00 6,8 C 1,1 C 60 % 60 % 1013,9 hPa 0,0 l/m 0,0 km/h (0 Bft) N-NO 22 -0,4 C 9,1 C 0,0 km/h (0 Bft)
14.02.2015 12:05 6,6 C 1,1 C 59 % 59 % 1013,9 hPa 0,0 l/m 0,2 km/h (0 Bft) N-NO 22 -0,8 C 9,2 C 1,6 km/h (1 Bft)
14.02.2015 12:10 7,4 C 1,1 C 60 % 60 % 1013,9 hPa 0,0 l/m 0,2 km/h (0 Bft) N-NW 337 0,2 C 9,2 C 0,0 km/h (0 Bft)
14.02.2015 12:15 6,9 C 1,1 C 59 % 59 % 1013,8 hPa 0,0 l/m 0,3 km/h (0 Bft) N-NO 22 -0,5 C 9,2 C 3,1 km/h (1 Bft)
14.02.2015 12:20 6,6 C 1,1 C 57 % 57 % 1013,8 hPa 0,0 l/m 1,4 km/h (1 Bft) N-NO 22 -1,3 C 8,9 C 4,5 km/h (1 Bft)
14.02.2015 12:25 6,7 C 1,1 C 56 % 56 % 1013,8 hPa 0,0 l/m 1,9 km/h (1 Bft) N-NO 22 -1,4 C 8,9 C 7,2 km/h (2 Bft)
14.02.2015 12:30 6,3 C 1,1 C 54 % 54 % 1013,8 hPa 0,0 l/m 3,2 km/h (1 Bft) NO 45 -2,3 C 8,5 C 8,7 km/h (2 Bft)
14.02.2015 12:35 6,3 C 1,1 C 54 % 54 % 1013,4 hPa 0,0 l/m 4,7 km/h (1 Bft) NO 45 -2,3 C 7,7 C 2,7 km/h (1 Bft)
14.02.2015 12:40 6,9 C 1,1 C 55 % 55 % 1013,4 hPa 0,0 l/m 3,4 km/h (1 Bft) NO 45 -1,5 C 8,3 C 3,5 km/h (1 Bft)
14.02.2015 12:45 7,1 C 1,1 C 55 % 55 % 1013,4 hPa 0,0 l/m 1,8 km/h (1 Bft) NO 45 -1,3 C 8,7 C 2,3 km/h (1 Bft)
14.02.2015 12:50 7,2 C 1,1 C 55 % 55 % 1013,4 hPa 0,0 l/m 1,3 km/h (1 Bft) N-NO 22 -1,2 C 9,1 C 4,8 km/h (1 Bft)
14.02.2015 12:55 7,2 C 1,1 C 55 % 55 % 1013,4 hPa 0,0 l/m 1,3 km/h (1 Bft) NO 45 -1,2 C 9,2 C 2,1 km/h (1 Bft)
14.02.2015 13:00 7,1 C 1,1 C 55 % 55 % 1013,4 hPa 0,0 l/m 1,9 km/h (1 Bft) N-NO 22 -1,3 C 8,9 C 2,9 km/h (1 Bft)
14.02.2015 13:05 6,8 C 1,1 C 55 % 55 % 1013,4 hPa 0,0 l/m 2,6 km/h (1 Bft) N-NO 22 -1,6 C 8,8 C 3,9 km/h (1 Bft)
14.02.2015 13:10 7,2 C 1,1 C 54 % 54 % 1013,4 hPa 0,0 l/m 1,9 km/h (1 Bft) N 360 -1,5 C 8,9 C 1,6 km/h (1 Bft)
14.02.2015 13:15 8,1 C 1,1 C 55 % 55 % 1013,2 hPa 0,0 l/m 1,0 km/h (0 Bft) N 360 -0,4 C 9,3 C 2,9 km/h (1 Bft)
14.02.2015 13:20 8,1 C 1,1 C 54 % 54 % 1013,2 hPa 0,0 l/m 0,8 km/h (0 Bft) NO 45 -0,6 C 9,9 C 4,2 km/h (1 Bft)
14.02.2015 13:25 8,1 C 1,1 C 54 % 54 % 1013,2 hPa 0,0 l/m 1,3 km/h (1 Bft) N 360 -0,6 C 10,0 C 1,6 km/h (1 Bft)
14.02.2015 13:30 7,6 C 1,1 C 53 % 53 % 1013,2 hPa 0,0 l/m 1,6 km/h (1 Bft) N-NO 22 -1,4 C 9,7 C 2,1 km/h (1 Bft)
14.02.2015 13:35 7,9 C 1,1 C 54 % 54 % 1013,1 hPa 0,0 l/m 1,3 km/h (1 Bft) O-NO 67 -0,8 C 9,5 C 0,0 km/h (0 Bft)
14.02.2015 13:40 7,8 C 1,1 C 54 % 54 % 1013,1 hPa 0,0 l/m 0,8 km/h (0 Bft) N-NO 22 -0,9 C 9,5 C 0,0 km/h (0 Bft)
14.02.2015 13:45 7,4 C 1,1 C 53 % 53 % 1013,1 hPa 0,0 l/m 0,6 km/h (0 Bft) NO 45 -1,5 C 9,5 C 1,8 km/h (1 Bft)
14.02.2015 13:50 8,6 C 1,1 C 55 % 55 % 1013,1 hPa 0,0 l/m 0,6 km/h (0 Bft) N-NO 22 0,1 C 9,6 C 0,0 km/h (0 Bft)
14.02.2015 13:55 9,6 C 1,0 C 55 % 55 % 1012,9 hPa 0,0 l/m 0,5 km/h (0 Bft) N-NO 22 1,0 C 10,4 C 0,0 km/h (0 Bft)
14.02.2015 14:00 8,7 C 1,0 C 51 % 51 % 1012,9 hPa 0,0 l/m 0,8 km/h (0 Bft) N 360 -0,9 C 11,3 C 3,1 km/h (1 Bft)
14.02.2015 14:05 8,7 C 1,2 C 51 % 51 % 1012,9 hPa 0,0 l/m 1,4 km/h (1 Bft) N-NO 22 -0,9 C 11,3 C 0,0 km/h (0 Bft)
14.02.2015 14:10 9,1 C 1,0 C 50 % 50 % 1012,9 hPa 0,0 l/m 1,4 km/h (1 Bft) NW 315 -0,8 C 11,9 C 1,9 km/h (1 Bft)
14.02.2015 14:15 8,8 C 1,0 C 51 % 51 % 1013,1 hPa 0,0 l/m 1,3 km/h (1 Bft) W 270 -0,8 C 11,6 C 3,9 km/h (1 Bft)
14.02.2015 14:20 9,4 C 1,1 C 52 % 52 % 1013,1 hPa 0,0 l/m 1,1 km/h (1 Bft) W 270 0,1 C 11,1 C 0,0 km/h (0 Bft)
14.02.2015 14:25 9,2 C 1,0 C 52 % 52 % 1013,1 hPa 0,0 l/m 1,0 km/h (0 Bft) W 270 -0,1 C 11,5 C 1,6 km/h (1 Bft)
14.02.2015 14:30 9,8 C 1,0 C 53 % 53 % 1013,1 hPa 0,0 l/m 0,3 km/h (0 Bft) W-NW 292 0,7 C 11,7 C 1,6 km/h (1 Bft)
14.02.2015 14:35 9,2 C 1,0 C 52 % 52 % 1013,2 hPa 0,0 l/m 0,5 km/h (0 Bft) W-SW 247 -0,1 C 11,8 C 2,4 km/h (1 Bft)
14.02.2015 14:40 8,5 C 1,0 C 52 % 52 % 1013,2 hPa 0,0 l/m 1,3 km/h (1 Bft) W 270 -0,8 C 11,3 C 3,1 km/h (1 Bft)
14.02.2015 14:45 8,6 C 1,1 C 52 % 52 % 1013,2 hPa 0,0 l/m 1,4 km/h (1 Bft) S-SW 202 -0,7 C 10,9 C 2,9 km/h (1 Bft)
14.02.2015 14:50 8,4 C 1,1 C 52 % 52 % 1013,2 hPa 0,0 l/m 1,4 km/h (1 Bft) W-SW 247 -0,9 C 10,7 C 1,6 km/h (1 Bft)
14.02.2015 14:55 8,4 C 1,1 C 53 % 53 % 1013,4 hPa 0,0 l/m 1,1 km/h (1 Bft) W 270 -0,6 C 10,6 C 2,4 km/h (1 Bft)
14.02.2015 15:00 8,5 C 1,1 C 52 % 52 % 1013,4 hPa 0,0 l/m 1,0 km/h (0 Bft) W 270 -0,8 C 10,7 C 1,6 km/h (1 Bft)
14.02.2015 15:05 8,4 C 1,1 C 52 % 52 % 1013,4 hPa 0,0 l/m 1,0 km/h (0 Bft) W 270 -0,9 C 10,6 C 1,8 km/h (1 Bft)
14.02.2015 15:10 8,8 C 1,1 C 53 % 53 % 1013,4 hPa 0,0 l/m 0,3 km/h (0 Bft) W 270 -0,2 C 10,6 C 1,6 km/h (1 Bft)
14.02.2015 15:15 8,8 C 1,1 C 53 % 53 % 1013,2 hPa 0,0 l/m 0,2 km/h (0 Bft) W-SW 247 -0,2 C 10,6 C 0,0 km/h (0 Bft)
14.02.2015 15:20 9,5 C 1,1 C 53 % 53 % 1013,2 hPa 0,0 l/m 0,0 km/h (0 Bft) W-SW 247 0,4 C 10,8 C 0,0 km/h (0 Bft)
14.02.2015 15:25 10,3 C 1,0 C 54 % 54 % 1013,2 hPa 0,0 l/m 0,0 km/h (0 Bft) W 270 1,4 C 11,8 C 0,0 km/h (0 Bft)
14.02.2015 15:30 9,7 C 1,0 C 53 % 53 % 1013,2 hPa 0,0 l/m 0,0 km/h (0 Bft) SW 225 0,6 C 13,1 C 0,0 km/h (0 Bft)
14.02.2015 15:35 9,6 C 1,0 C 53 % 53 % 1013,1 hPa 0,0 l/m 0,0 km/h (0 Bft) SW 225 0,5 C 12,4 C 0,0 km/h (0 Bft)
14.02.2015 15:40 9,9 C 1,0 C 53 % 53 % 1013,1 hPa 0,0 l/m 0,0 km/h (0 Bft) SW 225 0,8 C 12,0 C 0,0 km/h (0 Bft)
14.02.2015 15:45 10,5 C 1,2 C 53 % 53 % 1013,1 hPa 0,0 l/m 0,0 km/h (0 Bft) SW 225 1,3 C 12,6 C 0,0 km/h (0 Bft)
14.02.2015 15:50 9,7 C 1,0 C 52 % 52 % 1013,1 hPa 0,0 l/m 0,0 km/h (0 Bft) SW 225 0,3 C 13,2 C 0,0 km/h (0 Bft)
14.02.2015 15:55 8,3 C 1,1 C 53 % 53 % 1013,0 hPa 0,0 l/m 0,2 km/h (0 Bft) W-SW 247 -0,7 C 12,6 C 0,0 km/h (0 Bft)
14.02.2015 16:00 7,6 C 1,1 C 53 % 53 % 1013,0 hPa 0,0 l/m 0,2 km/h (0 Bft) SW 225 -1,4 C 11,0 C 0,0 km/h (0 Bft)
14.02.2015 16:05 7,5 C 1,1 C 54 % 54 % 1013,0 hPa 0,0 l/m 0,0 km/h (0 Bft) SW 225 -1,2 C 10,2 C 0,0 km/h (0 Bft)
14.02.2015 16:10 7,3 C 1,1 C 54 % 54 % 1013,0 hPa 0,0 l/m 0,0 km/h (0 Bft) SW 225 -1,4 C 9,1 C 0,0 km/h (0 Bft)
14.02.2015 16:15 6,8 C 1,1 C 54 % 54 % 1012,7 hPa 0,0 l/m 0,0 km/h (0 Bft) SW 225 -1,8 C 8,5 C 0,0 km/h (0 Bft)
14.02.2015 16:20 6,4 C 1,1 C 54 % 54 % 1012,7 hPa 0,0 l/m 0,0 km/h (0 Bft) SW 225 -2,2 C 7,6 C 0,0 km/h (0 Bft)
14.02.2015 16:25 6,2 C 1,1 C 55 % 55 % 1012,7 hPa 0,0 l/m 0,0 km/h (0 Bft) SW 225 -2,2 C 7,2 C 0,0 km/h (0 Bft)
14.02.2015 16:30 5,9 C 1,1 C 55 % 55 % 1012,7 hPa 0,0 l/m 0,0 km/h (0 Bft) SW 225 -2,4 C 6,6 C 0,0 km/h (0 Bft)
14.02.2015 16:35 5,7 C 1,1 C 55 % 55 % 1012,6 hPa 0,0 l/m 0,0 km/h (0 Bft) SW 225 -2,6 C 6,1 C 0,0 km/h (0 Bft)
14.02.2015 16:40 5,4 C 1,0 C 55 % 55 % 1012,6 hPa 0,0 l/m 0,0 km/h (0 Bft) SW 225 -2,9 C 5,7 C 0,0 km/h (0 Bft)
14.02.2015 16:45 5,1 C 1,0 C 56 % 56 % 1012,6 hPa 0,0 l/m 0,0 km/h (0 Bft) SW 225 -2,9 C 5,4 C 0,0 km/h (0 Bft)
14.02.2015 16:50 4,7 C 1,1 C 57 % 57 % 1012,6 hPa 0,0 l/m 0,0 km/h (0 Bft) SW 225 -3,1 C 4,9 C 0,0 km/h (0 Bft)
14.02.2015 16:55 4,4 C 1,1 C 57 % 57 % 1012,5 hPa 0,0 l/m 0,0 km/h (0 Bft) SW 225 -3,4 C 4,5 C 0,0 km/h (0 Bft)
14.02.2015 17:00 3,7 C 1,1 C 58 % 58 % 1012,5 hPa 0,0 l/m 0,0 km/h (0 Bft) W-SW 247 -3,8 C 3,9 C 0,0 km/h (0 Bft)
14.02.2015 17:05 3,1 C 1,1 C 58 % 58 % 1012,5 hPa 0,0 l/m 0,0 km/h (0 Bft) W-NW 292 -4,3 C 3,3 C 0,0 km/h (0 Bft)
14.02.2015 17:10 2,6 C 1,1 C 59 % 59 % 1012,5 hPa 0,0 l/m 0,0 km/h (0 Bft) NW 315 -4,6 C 2,4 C 0,0 km/h (0 Bft)
14.02.2015 17:15 2,1 C 1,1 C 59 % 59 % 1012,4 hPa 0,0 l/m 0,0 km/h (0 Bft) W-SW 247 -5,1 C 1,9 C 0,0 km/h (0 Bft)
14.02.2015 17:20 1,8 C 1,1 C 61 % 61 % 1012,4 hPa 0,0 l/m 0,0 km/h (0 Bft) W-SW 247 -4,9 C 1,2 C 0,0 km/h (0 Bft)
14.02.2015 17:25 1,6 C 1,1 C 62 % 62 % 1012,4 hPa 0,0 l/m 0,0 km/h (0 Bft) W-SW 247 -4,9 C 0,8 C 0,0 km/h (0 Bft)
14.02.2015 17:30 1,3 C 1,1 C 63 % 63 % 1012,4 hPa 0,0 l/m 0,0 km/h (0 Bft) W-SW 247 -5,0 C 0,4 C 0,0 km/h (0 Bft)
14.02.2015 17:35 1,3 C 1,1 C 64 % 64 % 1012,4 hPa 0,0 l/m 0,0 km/h (0 Bft) SW 225 -4,7 C 0,2 C 0,0 km/h (0 Bft)
14.02.2015 17:40 1,1 C 1,1 C 65 % 65 % 1012,4 hPa 0,0 l/m 0,5 km/h (0 Bft) O-NO 67 -4,7 C 0,1 C 0,0 km/h (0 Bft)
14.02.2015 17:45 0,5 C 1,1 C 65 % 65 % 1012,4 hPa 0,0 l/m 0,5 km/h (0 Bft) O-NO 67 -5,3 C -0,2 C 0,0 km/h (0 Bft)
14.02.2015 17:50 0,2 C 1,0 C 66 % 66 % 1012,4 hPa 0,0 l/m 0,0 km/h (0 Bft) O-NO 67 -5,4 C -0,9 C 0,0 km/h (0 Bft)
14.02.2015 17:55 0,1 C 1,0 C 67 % 67 % 1012,4 hPa 0,0 l/m 0,0 km/h (0 Bft) O 90 -5,3 C -1,1 C 0,0 km/h (0 Bft)
14.02.2015 18:00 -0,1 C 1,1 C 68 % 68 % 1012,4 hPa 0,0 l/m 0,0 km/h (0 Bft) O 90 -5,3 C -1,3 C 0,0 km/h (0 Bft)
14.02.2015 18:06 -0,5 C 1,1 C 68 % 68 % 1012,4 hPa 0,0 l/m 0,0 km/h (0 Bft) S 180 -5,7 C -1,5 C 1,8 km/h (1 Bft)
14.02.2015 18:10 -1,0 C 1,1 C 69 % 69 % 1012,4 hPa 0,0 l/m 0,0 km/h (0 Bft) SO 135 -5,9 C -2,0 C 0,0 km/h (0 Bft)
14.02.2015 18:15 -1,1 C 1,1 C 69 % 69 % 1012,6 hPa 0,0 l/m 0,0 km/h (0 Bft) SO 135 -6,0 C -2,2 C 0,0 km/h (0 Bft)
14.02.2015 18:20 -1,2 C 1,1 C 71 % 71 % 1012,6 hPa 0,0 l/m 0,0 km/h (0 Bft) S 180 -5,8 C -2,4 C 0,0 km/h (0 Bft)
14.02.2015 18:25 -1,2 C 1,1 C 71 % 71 % 1012,6 hPa 0,0 l/m 0,5 km/h (0 Bft) W-SW 247 -5,8 C -2,5 C 2,6 km/h (1 Bft)
14.02.2015 18:30 -1,3 C 1,1 C 72 % 72 % 1012,6 hPa 0,0 l/m 0,8 km/h (0 Bft) SW 225 -5,7 C -2,6 C 0,0 km/h (0 Bft)
14.02.2015 18:35 -1,4 C 1,1 C 72 % 72 % 1012,4 hPa 0,0 l/m 0,8 km/h (0 Bft) O-SO 112 -5,8 C -2,7 C 2,1 km/h (1 Bft)
14.02.2015 18:40 -1,5 C 1,1 C 73 % 73 % 1012,4 hPa 0,0 l/m 0,2 km/h (0 Bft) SO 135 -5,7 C -2,7 C 0,0 km/h (0 Bft)
14.02.2015 18:45 -1,8 C 1,1 C 73 % 73 % 1012,4 hPa 0,0 l/m 0,2 km/h (0 Bft) W 270 -6,0 C -2,9 C 2,1 km/h (1 Bft)
14.02.2015 18:50 -2,0 C 1,1 C 74 % 74 % 1012,4 hPa 0,0 l/m 0,2 km/h (0 Bft) O-SO 112 -6,0 C -3,0 C 0,0 km/h (0 Bft)
14.02.2015 18:55 -1,8 C 1,1 C 74 % 74 % 1012,5 hPa 0,0 l/m 0,3 km/h (0 Bft) O-NO 67 -5,8 C -3,0 C 0,0 km/h (0 Bft)
14.02.2015 19:00 -2,3 C 1,1 C 74 % 74 % 1012,5 hPa 0,0 l/m 0,3 km/h (0 Bft) N-NO 22 -6,3 C -3,0 C 0,0 km/h (0 Bft)
14.02.2015 19:05 -2,3 C 1,1 C 75 % 75 % 1012,5 hPa 0,0 l/m 0,2 km/h (0 Bft) W-SW 247 -6,1 C -3,2 C 1,8 km/h (1 Bft)
14.02.2015 19:10 -2,3 C 1,1 C 75 % 75 % 1012,5 hPa 0,0 l/m 1,0 km/h (0 Bft) S 180 -6,1 C -3,4 C 2,3 km/h (1 Bft)
14.02.2015 19:15 -2,2 C 1,1 C 76 % 76 % 1012,5 hPa 0,0 l/m 1,1 km/h (1 Bft) O-NO 67 -5,8 C -3,4 C 1,9 km/h (1 Bft)
14.02.2015 19:20 -2,4 C 1,1 C 76 % 76 % 1012,5 hPa 0,0 l/m 0,5 km/h (0 Bft) O 90 -6,0 C -3,4 C 0,0 km/h (0 Bft)
14.02.2015 19:25 -2,5 C 1,1 C 76 % 76 % 1012,5 hPa 0,0 l/m 0,2 km/h (0 Bft) O-SO 112 -6,1 C -3,4 C 0,0 km/h (0 Bft)
14.02.2015 19:30 -2,8 C 1,1 C 76 % 76 % 1012,5 hPa 0,0 l/m 0,0 km/h (0 Bft) W 270 -6,4 C -3,8 C 0,0 km/h (0 Bft)
14.02.2015 19:35 -2,8 C 1,1 C 76 % 76 % 1012,2 hPa 0,0 l/m 0,0 km/h (0 Bft) W 270 -6,4 C -3,9 C 0,0 km/h (0 Bft)
14.02.2015 19:40 -2,7 C 1,1 C 77 % 77 % 1012,2 hPa 0,0 l/m 1,1 km/h (1 Bft) NW 315 -6,2 C -3,9 C 0,0 km/h (0 Bft)
14.02.2015 19:45 -3,0 C 1,1 C 77 % 77 % 1012,2 hPa 0,0 l/m 1,1 km/h (1 Bft) NW 315 -6,4 C -3,9 C 0,0 km/h (0 Bft)
14.02.2015 19:50 -3,0 C 1,1 C 77 % 77 % 1012,2 hPa 0,0 l/m 0,0 km/h (0 Bft) S-SO 157 -6,4 C -4,0 C 0,0 km/h (0 Bft)
14.02.2015 19:55 -3,0 C 1,1 C 77 % 77 % 1012,4 hPa 0,0 l/m 0,0 km/h (0 Bft) N-NO 22 -6,4 C -3,9 C 0,0 km/h (0 Bft)
14.02.2015 20:00 -2,9 C 1,1 C 78 % 78 % 1012,4 hPa 0,0 l/m 0,8 km/h (0 Bft) N-NO 22 -6,2 C -3,9 C 2,7 km/h (1 Bft)
14.02.2015 20:05 -2,8 C 1,1 C 78 % 78 % 1012,4 hPa 0,0 l/m 1,4 km/h (1 Bft) N-NO 22 -6,1 C -3,8 C 3,1 km/h (1 Bft)
14.02.2015 20:10 -2,8 C 1,1 C 78 % 78 % 1012,4 hPa 0,0 l/m 1,3 km/h (1 Bft) W-SW 247 -6,1 C -3,8 C 2,6 km/h (1 Bft)
14.02.2015 20:15 -2,8 C 1,1 C 79 % 79 % 1012,4 hPa 0,0 l/m 1,4 km/h (1 Bft) W-SW 247 -5,9 C -3,8 C 2,1 km/h (1 Bft)
14.02.2015 20:20 -3,0 C 1,1 C 79 % 79 % 1012,4 hPa 0,0 l/m 1,8 km/h (1 Bft) SW 225 -6,1 C -3,9 C 1,8 km/h (1 Bft)
14.02.2015 20:25 -3,2 C 1,1 C 79 % 79 % 1012,4 hPa 0,0 l/m 0,8 km/h (0 Bft) S 180 -6,3 C -4,0 C 0,0 km/h (0 Bft)
14.02.2015 20:30 -3,2 C 1,1 C 79 % 79 % 1012,4 hPa 0,0 l/m 0,6 km/h (0 Bft) S 180 -6,3 C -4,2 C 2,3 km/h (1 Bft)
14.02.2015 20:35 -3,1 C 1,1 C 79 % 79 % 1012,4 hPa 0,0 l/m 1,0 km/h (0 Bft) O-NO 67 -6,2 C -4,2 C 2,3 km/h (1 Bft)
14.02.2015 20:40 -3,2 C 1,1 C 79 % 79 % 1012,4 hPa 0,0 l/m 1,8 km/h (1 Bft) S-SO 157 -6,3 C -4,2 C 2,3 km/h (1 Bft)
14.02.2015 20:45 -3,2 C 1,1 C 80 % 80 % 1012,4 hPa 0,0 l/m 1,6 km/h (1 Bft) S 180 -6,1 C -4,2 C 0,0 km/h (0 Bft)
14.02.2015 20:50 -3,3 C 1,1 C 80 % 80 % 1012,4 hPa 0,0 l/m 1,1 km/h (1 Bft) S 180 -6,2 C -4,2 C 1,9 km/h (1 Bft)
14.02.2015 20:55 -3,2 C 1,1 C 80 % 80 % 1012,5 hPa 0,0 l/m 1,1 km/h (1 Bft) S-SW 202 -6,1 C -4,3 C 1,6 km/h (1 Bft)
14.02.2015 21:00 -3,5 C 1,1 C 81 % 81 % 1012,5 hPa 0,0 l/m 1,1 km/h (1 Bft) SW 225 -6,3 C -4,3 C 3,7 km/h (1 Bft)
14.02.2015 21:05 -3,3 C 1,1 C 81 % 81 % 1012,5 hPa 0,0 l/m 1,4 km/h (1 Bft) O-SO 112 -6,1 C -4,3 C 0,0 km/h (0 Bft)
14.02.2015 21:10 -3,4 C 1,1 C 81 % 81 % 1012,5 hPa 0,0 l/m 1,1 km/h (1 Bft) S-SO 157 -6,2 C -4,3 C 0,0 km/h (0 Bft)
14.02.2015 21:15 -3,4 C 1,1 C 81 % 81 % 1012,5 hPa 0,0 l/m 0,3 km/h (0 Bft) O-SO 112 -6,2 C -4,4 C 1,6 km/h (1 Bft)
14.02.2015 21:20 -3,5 C 1,1 C 81 % 81 % 1012,5 hPa 0,0 l/m 0,3 km/h (0 Bft) O-NO 67 -6,3 C -4,5 C 0,0 km/h (0 Bft)
14.02.2015 21:25 -4,1 C 1,1 C 81 % 81 % 1012,5 hPa 0,0 l/m 0,5 km/h (0 Bft) O-SO 112 -6,9 C -4,6 C 0,0 km/h (0 Bft)
14.02.2015 21:30 -3,9 C 1,1 C 82 % 82 % 1012,5 hPa 0,0 l/m 0,5 km/h (0 Bft) S-SO 157 -6,5 C -4,8 C 1,9 km/h (1 Bft)
14.02.2015 21:35 -3,9 C 1,1 C 82 % 82 % 1012,4 hPa 0,0 l/m 0,5 km/h (0 Bft) N-NO 22 -6,5 C -4,8 C 0,0 km/h (0 Bft)
14.02.2015 21:40 -4,4 C 1,1 C 81 % 81 % 1012,4 hPa 0,0 l/m 0,5 km/h (0 Bft) NW 315 -7,2 C -5,0 C 0,0 km/h (0 Bft)
14.02.2015 21:45 -4,7 C 1,1 C 81 % 81 % 1012,4 hPa 0,0 l/m 0,2 km/h (0 Bft) S-SO 157 -7,4 C -5,3 C 0,0 km/h (0 Bft)
14.02.2015 21:50 -4,1 C 1,1 C 82 % 82 % 1012,4 hPa 0,0 l/m 0,8 km/h (0 Bft) SO 135 -6,7 C -5,3 C 1,6 km/h (1 Bft)
14.02.2015 21:55 -4,1 C 1,1 C 82 % 82 % 1012,4 hPa 0,0 l/m 0,8 km/h (0 Bft) S 180 -6,7 C -5,0 C 0,0 km/h (0 Bft)
14.02.2015 22:00 -4,3 C 1,1 C 82 % 82 % 1012,4 hPa 0,0 l/m 0,2 km/h (0 Bft) S 180 -6,9 C -5,1 C 0,0 km/h (0 Bft)
14.02.2015 22:05 -4,1 C 1,1 C 82 % 82 % 1012,4 hPa 0,0 l/m 0,5 km/h (0 Bft) SO 135 -6,7 C -5,0 C 0,0 km/h (0 Bft)
14.02.2015 22:10 -4,3 C 1,1 C 82 % 82 % 1012,4 hPa 0,0 l/m 0,6 km/h (0 Bft) S 180 -6,9 C -4,9 C 0,0 km/h (0 Bft)
14.02.2015 22:15 -4,7 C 1,0 C 82 % 82 % 1012,2 hPa 0,0 l/m 0,8 km/h (0 Bft) W-SW 247 -7,3 C -5,2 C 3,1 km/h (1 Bft)
14.02.2015 22:20 -5,1 C 1,0 C 82 % 82 % 1012,2 hPa 0,0 l/m 0,8 km/h (0 Bft) SO 135 -7,7 C -5,7 C 1,8 km/h (1 Bft)
14.02.2015 22:25 -4,8 C 1,0 C 82 % 82 % 1012,2 hPa 0,0 l/m 0,8 km/h (0 Bft) SO 135 -7,4 C -5,7 C 0,0 km/h (0 Bft)
14.02.2015 22:30 -4,7 C 1,0 C 82 % 82 % 1012,2 hPa 0,0 l/m 0,3 km/h (0 Bft) SO 135 -7,3 C -5,7 C 0,0 km/h (0 Bft)
14.02.2015 22:35 -4,7 C 1,0 C 82 % 82 % 1012,1 hPa 0,0 l/m 0,0 km/h (0 Bft) S-SO 157 -7,3 C -5,6 C 0,0 km/h (0 Bft)
14.02.2015 22:40 -5,3 C 1,0 C 82 % 82 % 1012,1 hPa 0,0 l/m 0,0 km/h (0 Bft) NO 45 -7,9 C -5,7 C 0,0 km/h (0 Bft)
14.02.2015 22:45 -5,4 C 1,0 C 82 % 82 % 1012,1 hPa 0,0 l/m 0,0 km/h (0 Bft) NO 45 -8,0 C -6,0 C 0,0 km/h (0 Bft)
14.02.2015 22:50 -5,6 C 1,1 C 82 % 82 % 1012,1 hPa 0,0 l/m 0,0 km/h (0 Bft) NO 45 -8,2 C -6,5 C 2,3 km/h (1 Bft)
14.02.2015 22:55 -5,2 C 1,1 C 82 % 82 % 1012,2 hPa 0,0 l/m 0,3 km/h (0 Bft) S-SW 202 -7,8 C -6,3 C 0,0 km/h (0 Bft)
14.02.2015 23:00 -4,5 C 1,1 C 83 % 83 % 1012,2 hPa 0,0 l/m 1,0 km/h (0 Bft) S 180 -6,9 C -5,9 C 2,3 km/h (1 Bft)
14.02.2015 23:05 -5,6 C 1,1 C 82 % 82 % 1012,2 hPa 0,0 l/m 0,8 km/h (0 Bft) SO 135 -8,2 C -5,9 C 0,0 km/h (0 Bft)
14.02.2015 23:10 -5,5 C 1,1 C 82 % 82 % 1012,2 hPa 0,0 l/m 0,5 km/h (0 Bft) W-SW 247 -8,1 C -6,5 C 2,4 km/h (1 Bft)
14.02.2015 23:15 -5,4 C 1,1 C 83 % 83 % 1012,4 hPa 0,0 l/m 0,5 km/h (0 Bft) O-NO 67 -7,8 C -6,3 C 0,0 km/h (0 Bft)
14.02.2015 23:20 -5,1 C 1,1 C 83 % 83 % 1012,4 hPa 0,0 l/m 0,8 km/h (0 Bft) O-NO 67 -7,5 C -6,2 C 1,6 km/h (1 Bft)
14.02.2015 23:25 -5,6 C 1,1 C 83 % 83 % 1012,4 hPa 0,0 l/m 0,6 km/h (0 Bft) SO 135 -8,0 C -6,2 C 0,0 km/h (0 Bft)
14.02.2015 23:30 -5,5 C 1,1 C 83 % 83 % 1012,4 hPa 0,0 l/m 0,2 km/h (0 Bft) S 180 -7,9 C -6,3 C 0,0 km/h (0 Bft)
14.02.2015 23:35 -5,2 C 1,1 C 83 % 83 % 1012,2 hPa 0,0 l/m 0,0 km/h (0 Bft) SW 225 -7,6 C -6,3 C 0,0 km/h (0 Bft)
14.02.2015 23:40 -5,1 C 1,1 C 83 % 83 % 1012,2 hPa 0,0 l/m 0,2 km/h (0 Bft) N-NO 22 -7,5 C -6,1 C 2,1 km/h (1 Bft)
14.02.2015 23:45 -6,0 C 1,1 C 83 % 83 % 1012,2 hPa 0,0 l/m 0,2 km/h (0 Bft) S-SO 157 -8,4 C -6,3 C 0,0 km/h (0 Bft)
14.02.2015 23:50 -6,1 C 1,1 C 82 % 82 % 1012,2 hPa 0,0 l/m 0,2 km/h (0 Bft) O 90 -8,7 C -6,7 C 0,0 km/h (0 Bft)
14.02.2015 23:55 -6,5 C 1,1 C 82 % 82 % 1012,2 hPa 0,0 l/m 0,0 km/h (0 Bft) W 270 -9,0 C -7,0 C 0,0 km/h (0 Bft)
_ Min-Zeit 04:20 22:45 14:10 14:10 22:50 - 23:55 - - 04:20 04:25 23:55
Minimum _ -7,8 C 1,0 C 50 % 50 % 1012,1 hPa - 0,0 km/h (0 Bft) - - -10,8 C -8,4 C 0,0 km/h (0 Bft)
_ Max-Zeit 15:45 15:45 23:45 23:45 00:50 23:55 12:35 - - 15:25 15:50 12:30
Maximum _ 10,5 C 1,2 C 83 % 83 % 1017,6 hPa 0,0 l/m 4,7 km/h
NO (1 Bft)
- - 1,4 C 13,2 C 8,7 km/h
NO (2 Bft)
Durchschnitt _ -1,4 C 1,1 C 72 % 72 % 1014,1 hPa #0,0 l/m 0,4 km/h (0 Bft) N-NO - -5,9 C -1,2 C 0,6 km/h (0 Bft)